Year,Month,Day,Hour,Minute,Value (Times are PST for temperature in C)
2023,10,28,00,00,-2.60
2023,10,28,00,01,-2.60
2023,10,28,00,02,-2.60
2023,10,28,00,03,-2.60
2023,10,28,00,04,-2.60
2023,10,28,00,05,-2.60
2023,10,28,00,06,-2.60
2023,10,28,00,07,-2.60
2023,10,28,00,08,-2.60
2023,10,28,00,09,-2.60
2023,10,28,00,10,-2.60
2023,10,28,00,11,-2.60
2023,10,28,00,12,-2.70
2023,10,28,00,13,-2.70
2023,10,28,00,14,-2.70
2023,10,28,00,15,-2.70
2023,10,28,00,16,-2.60
2023,10,28,00,17,-2.70
2023,10,28,00,18,-2.70
2023,10,28,00,19,-2.70
2023,10,28,00,20,-2.70
2023,10,28,00,21,-2.70
2023,10,28,00,22,-2.70
2023,10,28,00,23,-2.70
2023,10,28,00,24,-2.70
2023,10,28,00,25,-2.60
2023,10,28,00,26,-2.60
2023,10,28,00,27,-2.60
2023,10,28,00,28,-2.60
2023,10,28,00,29,-2.60
2023,10,28,00,30,-2.60
2023,10,28,00,31,-2.60
2023,10,28,00,32,-2.60
2023,10,28,00,33,-2.70
2023,10,28,00,34,-2.70
2023,10,28,00,35,-2.70
2023,10,28,00,36,-2.70
2023,10,28,00,37,-2.70
2023,10,28,00,38,-2.70
2023,10,28,00,39,-2.70
2023,10,28,00,40,-2.70
2023,10,28,00,41,-2.70
2023,10,28,00,42,-2.70
2023,10,28,00,43,-2.70
2023,10,28,00,44,-2.70
2023,10,28,00,45,-2.70
2023,10,28,00,46,-2.70
2023,10,28,00,47,-2.80
2023,10,28,00,48,-2.80
2023,10,28,00,49,-2.80
2023,10,28,00,50,-2.80
2023,10,28,00,51,-2.80
2023,10,28,00,52,-2.80
2023,10,28,00,53,-2.80
2023,10,28,00,54,-2.80
2023,10,28,00,55,-2.80
2023,10,28,00,56,-2.80
2023,10,28,00,57,-2.80
2023,10,28,00,58,-2.80
2023,10,28,00,59,-2.80
2023,10,28,01,00,-2.80
2023,10,28,01,01,-2.80
2023,10,28,01,02,-2.80
2023,10,28,01,03,-2.80
2023,10,28,01,04,-2.80
2023,10,28,01,05,-2.80
2023,10,28,01,06,-2.80
2023,10,28,01,07,-2.80
2023,10,28,01,08,-2.80
2023,10,28,01,09,-2.80
2023,10,28,01,10,-2.80
2023,10,28,01,11,-2.80
2023,10,28,01,12,-2.80
2023,10,28,01,13,-2.80
2023,10,28,01,14,-2.90
2023,10,28,01,15,-2.90
2023,10,28,01,16,-2.90
2023,10,28,01,17,-2.90
2023,10,28,01,18,-2.90
2023,10,28,01,19,-2.90
2023,10,28,01,20,-2.90
2023,10,28,01,21,-2.90
2023,10,28,01,22,-2.90
2023,10,28,01,23,-2.90
2023,10,28,01,24,-2.90
2023,10,28,01,25,-2.90
2023,10,28,01,26,-2.90
2023,10,28,01,27,-3.00
2023,10,28,01,28,-3.00
2023,10,28,01,29,-3.00
2023,10,28,01,30,-3.00
2023,10,28,01,31,-3.00
2023,10,28,01,32,-3.00
2023,10,28,01,33,-3.00
2023,10,28,01,34,-3.00
2023,10,28,01,35,-3.00
2023,10,28,01,36,-3.00
2023,10,28,01,37,-3.00
2023,10,28,01,38,-3.00
2023,10,28,01,39,-3.00
2023,10,28,01,40,-3.00
2023,10,28,01,41,-3.00
2023,10,28,01,42,-3.00
2023,10,28,01,43,-3.00
2023,10,28,01,44,-3.10
2023,10,28,01,45,-3.10
2023,10,28,01,46,-3.10
2023,10,28,01,47,-3.10
2023,10,28,01,48,-3.10
2023,10,28,01,49,-3.10
2023,10,28,01,50,-3.10
2023,10,28,01,51,-3.10
2023,10,28,01,52,-3.10
2023,10,28,01,53,-3.10
2023,10,28,01,54,-3.10
2023,10,28,01,55,-3.10
2023,10,28,01,56,-3.10
2023,10,28,01,57,-3.10
2023,10,28,01,58,-3.10
2023,10,28,01,59,-3.10
2023,10,28,02,00,-3.10
2023,10,28,02,01,-3.10
2023,10,28,02,02,-3.10
2023,10,28,02,03,-3.10
2023,10,28,02,04,-3.10
2023,10,28,02,05,-3.10
2023,10,28,02,06,-3.10
2023,10,28,02,07,-3.10
2023,10,28,02,08,-3.10
2023,10,28,02,09,-3.10
2023,10,28,02,10,-3.10
2023,10,28,02,11,-3.10
2023,10,28,02,12,-3.10
2023,10,28,02,13,-3.10
2023,10,28,02,14,-3.10
2023,10,28,02,15,-3.10
2023,10,28,02,16,-3.10
2023,10,28,02,17,-3.10
2023,10,28,02,18,-3.20
2023,10,28,02,19,-3.20
2023,10,28,02,20,-3.20
2023,10,28,02,21,-3.20
2023,10,28,02,22,-3.20
2023,10,28,02,23,-3.20
2023,10,28,02,24,-3.20
2023,10,28,02,25,-3.20
2023,10,28,02,26,-3.20
2023,10,28,02,27,-3.20
2023,10,28,02,28,-3.20
2023,10,28,02,29,-3.20
2023,10,28,02,30,-3.20
2023,10,28,02,31,-3.20
2023,10,28,02,32,-3.20
2023,10,28,02,33,-3.20
2023,10,28,02,34,-3.20
2023,10,28,02,35,-3.20
2023,10,28,02,36,-3.20
2023,10,28,02,37,-3.20
2023,10,28,02,38,-3.20
2023,10,28,02,39,-3.20
2023,10,28,02,40,-3.20
2023,10,28,02,41,-3.20
2023,10,28,02,42,-3.20
2023,10,28,02,43,-3.20
2023,10,28,02,44,-3.20
2023,10,28,02,45,-3.20
2023,10,28,02,46,-3.20
2023,10,28,02,47,-3.20
2023,10,28,02,48,-3.20
2023,10,28,02,49,-3.20
2023,10,28,02,50,-3.20
2023,10,28,02,51,-3.20
2023,10,28,02,52,-3.20
2023,10,28,02,53,-3.20
2023,10,28,02,54,-3.20
2023,10,28,02,55,-3.20
2023,10,28,02,56,-3.20
2023,10,28,02,57,-3.20
2023,10,28,02,58,-3.20
2023,10,28,02,59,-3.20
2023,10,28,03,00,-3.20
2023,10,28,03,01,-3.20
2023,10,28,03,02,-3.20
2023,10,28,03,03,-3.20
2023,10,28,03,04,-3.20
2023,10,28,03,05,-3.20
2023,10,28,03,06,-3.20
2023,10,28,03,07,-3.20
2023,10,28,03,08,-3.20
2023,10,28,03,09,-3.20
2023,10,28,03,10,-3.20
2023,10,28,03,11,-3.20
2023,10,28,03,12,-3.20
2023,10,28,03,13,-3.20
2023,10,28,03,14,-3.20
2023,10,28,03,15,-3.20
2023,10,28,03,16,-3.20
2023,10,28,03,17,-3.20
2023,10,28,03,18,-3.20
2023,10,28,03,19,-3.20
2023,10,28,03,20,-3.20
2023,10,28,03,21,-3.20
2023,10,28,03,22,-3.20
2023,10,28,03,23,-3.20
2023,10,28,03,24,-3.20
2023,10,28,03,25,-3.20
2023,10,28,03,26,-3.20
2023,10,28,03,27,-3.20
2023,10,28,03,28,-3.20
2023,10,28,03,29,-3.20
2023,10,28,03,30,-3.20
2023,10,28,03,31,-3.20
2023,10,28,03,32,-3.20
2023,10,28,03,33,-3.20
2023,10,28,03,34,-3.20
2023,10,28,03,35,-3.20
2023,10,28,03,36,-3.20
2023,10,28,03,37,-3.20
2023,10,28,03,38,-3.20
2023,10,28,03,39,-3.20
2023,10,28,03,40,-3.20
2023,10,28,03,41,-3.20
2023,10,28,03,42,-3.20
2023,10,28,03,43,-3.20
2023,10,28,03,44,-3.20
2023,10,28,03,45,-3.20
2023,10,28,03,46,-3.20
2023,10,28,03,47,-3.20
2023,10,28,03,48,-3.20
2023,10,28,03,49,-3.20
2023,10,28,03,50,-3.20
2023,10,28,03,51,-3.20
2023,10,28,03,52,-3.20
2023,10,28,03,53,-3.20
2023,10,28,03,54,-3.20
2023,10,28,03,55,-3.20
2023,10,28,03,56,-3.20
2023,10,28,03,57,-3.20
2023,10,28,03,58,-3.20
2023,10,28,03,59,-3.20
2023,10,28,04,00,-3.20
2023,10,28,04,01,-3.20
2023,10,28,04,02,-3.20
2023,10,28,04,03,-3.20
2023,10,28,04,04,-3.20
2023,10,28,04,05,-3.20
2023,10,28,04,06,-3.20
2023,10,28,04,07,-3.20
2023,10,28,04,08,-3.20
2023,10,28,04,09,-3.20
2023,10,28,04,10,-3.20
2023,10,28,04,11,-3.20
2023,10,28,04,12,-3.20
2023,10,28,04,13,-3.20
2023,10,28,04,14,-3.20
2023,10,28,04,15,-3.20
2023,10,28,04,16,-3.20
2023,10,28,04,17,-3.20
2023,10,28,04,18,-3.20
2023,10,28,04,19,-3.20
2023,10,28,04,20,-3.20
2023,10,28,04,21,-3.20
2023,10,28,04,22,-3.20
2023,10,28,04,23,-3.20
2023,10,28,04,24,-3.20
2023,10,28,04,25,-3.20
2023,10,28,04,26,-3.20
2023,10,28,04,27,-3.20
2023,10,28,04,28,-3.20
2023,10,28,04,29,-3.20
2023,10,28,04,30,-3.20
2023,10,28,04,31,-3.20
2023,10,28,04,32,-3.20
2023,10,28,04,33,-3.20
2023,10,28,04,34,-3.20
2023,10,28,04,35,-3.30
2023,10,28,04,36,-3.30
2023,10,28,04,37,-3.30
2023,10,28,04,38,-3.30
2023,10,28,04,39,-3.30
2023,10,28,04,40,-3.30
2023,10,28,04,41,-3.30
2023,10,28,04,42,-3.30
2023,10,28,04,43,-3.30
2023,10,28,04,44,-3.30
2023,10,28,04,45,-3.30
2023,10,28,04,46,-3.30
2023,10,28,04,47,-3.30
2023,10,28,04,48,-3.30
2023,10,28,04,49,-3.30
2023,10,28,04,50,-3.30
2023,10,28,04,51,-3.30
2023,10,28,04,52,-3.30
2023,10,28,04,53,-3.20
2023,10,28,04,54,-3.20
2023,10,28,04,55,-3.20
2023,10,28,04,56,-3.20
2023,10,28,04,57,-3.20
2023,10,28,04,58,-3.20
2023,10,28,04,59,-3.20
2023,10,28,05,00,-3.20
2023,10,28,05,01,-3.20
2023,10,28,05,02,-3.20
2023,10,28,05,03,-3.20
2023,10,28,05,04,-3.20
2023,10,28,05,05,-3.20
2023,10,28,05,06,-3.20
2023,10,28,05,07,-3.20
2023,10,28,05,08,-3.20
2023,10,28,05,09,-3.20
2023,10,28,05,10,-3.20
2023,10,28,05,11,-3.20
2023,10,28,05,12,-3.20
2023,10,28,05,13,-3.20
2023,10,28,05,14,-3.20
2023,10,28,05,15,-3.20
2023,10,28,05,16,-3.20
2023,10,28,05,17,-3.20
2023,10,28,05,18,-3.20
2023,10,28,05,19,-3.20
2023,10,28,05,20,-3.20
2023,10,28,05,21,-3.20
2023,10,28,05,22,-3.20
2023,10,28,05,23,-3.20
2023,10,28,05,24,-3.20
2023,10,28,05,25,-3.20
2023,10,28,05,26,-3.20
2023,10,28,05,27,-3.20
2023,10,28,05,28,-3.20
2023,10,28,05,29,-3.20
2023,10,28,05,30,-3.20
2023,10,28,05,31,-3.20
2023,10,28,05,32,-3.20
2023,10,28,05,33,-3.20
2023,10,28,05,34,-3.20
2023,10,28,05,35,-3.20
2023,10,28,05,36,-3.20
2023,10,28,05,37,-3.20
2023,10,28,05,38,-3.20
2023,10,28,05,39,-3.20
2023,10,28,05,40,-3.20
2023,10,28,05,41,-3.20
2023,10,28,05,42,-3.20
2023,10,28,05,43,-3.20
2023,10,28,05,44,-3.20
2023,10,28,05,45,-3.20
2023,10,28,05,46,-3.20
2023,10,28,05,47,-3.20
2023,10,28,05,48,-3.20
2023,10,28,05,49,-3.20
2023,10,28,05,50,-3.20
2023,10,28,05,51,-3.20
2023,10,28,05,52,-3.20
2023,10,28,05,53,-3.20
2023,10,28,05,54,-3.20
2023,10,28,05,55,-3.20
2023,10,28,05,56,-3.20
2023,10,28,05,57,-3.20
2023,10,28,05,58,-3.20
2023,10,28,05,59,-3.20
2023,10,28,06,00,-3.20
2023,10,28,06,01,-3.20
2023,10,28,06,02,-3.20
2023,10,28,06,03,-3.20
2023,10,28,06,04,-3.20
2023,10,28,06,05,-3.20
2023,10,28,06,06,-3.20
2023,10,28,06,07,-3.20
2023,10,28,06,08,-3.20
2023,10,28,06,09,-3.20
2023,10,28,06,10,-3.20
2023,10,28,06,11,-3.20
2023,10,28,06,12,-3.20
2023,10,28,06,13,-3.20
2023,10,28,06,14,-3.20
2023,10,28,06,15,-3.20
2023,10,28,06,16,-3.20
2023,10,28,06,17,-3.20
2023,10,28,06,18,-3.20
2023,10,28,06,19,-3.20
2023,10,28,06,20,-3.20
2023,10,28,06,21,-3.20
2023,10,28,06,22,-3.20
2023,10,28,06,23,-3.20
2023,10,28,06,24,-3.20
2023,10,28,06,25,-3.20
2023,10,28,06,26,-3.20
2023,10,28,06,27,-3.20
2023,10,28,06,28,-3.20
2023,10,28,06,29,-3.20
2023,10,28,06,30,-3.20
2023,10,28,06,31,-3.20
2023,10,28,06,32,-3.20
2023,10,28,06,33,-3.20
2023,10,28,06,34,-3.20
2023,10,28,06,35,-3.20
2023,10,28,06,36,-3.20
2023,10,28,06,37,-3.20
2023,10,28,06,38,-3.20
2023,10,28,06,39,-3.20
2023,10,28,06,40,-3.20
2023,10,28,06,41,-3.20
2023,10,28,06,42,-3.20
2023,10,28,06,43,-3.20
2023,10,28,06,44,-3.20
2023,10,28,06,45,-3.20
2023,10,28,06,46,-3.20
2023,10,28,06,47,-3.20
2023,10,28,06,48,-3.20
2023,10,28,06,49,-3.20
2023,10,28,06,50,-3.20
2023,10,28,06,51,-3.20
2023,10,28,06,52,-3.20
2023,10,28,06,53,-3.20
2023,10,28,06,54,-3.20
2023,10,28,06,55,-3.20
2023,10,28,06,56,-3.20
2023,10,28,06,57,-3.20
2023,10,28,06,58,-3.20
2023,10,28,06,59,-3.20
2023,10,28,07,00,-3.20
2023,10,28,07,01,-3.20
2023,10,28,07,02,-3.20
2023,10,28,07,03,-3.20
2023,10,28,07,04,-3.20
2023,10,28,07,05,-3.20
2023,10,28,07,06,-3.20
2023,10,28,07,07,-3.20
2023,10,28,07,08,-3.20
2023,10,28,07,09,-3.20
2023,10,28,07,10,-3.20
2023,10,28,07,11,-3.20
2023,10,28,07,12,-3.20
2023,10,28,07,13,-3.20
2023,10,28,07,14,-3.20
2023,10,28,07,15,-3.20
2023,10,28,07,16,-3.20
2023,10,28,07,17,-3.20
2023,10,28,07,18,-3.20
2023,10,28,07,19,-3.20
2023,10,28,07,20,-3.20
2023,10,28,07,21,-3.20
2023,10,28,07,22,-3.20
2023,10,28,07,23,-3.20
2023,10,28,07,24,-3.20
2023,10,28,07,25,-3.20
2023,10,28,07,26,-3.20
2023,10,28,07,27,-3.20
2023,10,28,07,28,-3.20
2023,10,28,07,29,-3.20
2023,10,28,07,30,-3.20
2023,10,28,07,31,-3.20
2023,10,28,07,32,-3.20
2023,10,28,07,33,-3.20
2023,10,28,07,34,-3.20
2023,10,28,07,35,-3.20
2023,10,28,07,36,-3.20
2023,10,28,07,37,-3.20
2023,10,28,07,38,-3.20
2023,10,28,07,39,-3.20
2023,10,28,07,40,-3.20
2023,10,28,07,41,-3.20
2023,10,28,07,42,-3.20
2023,10,28,07,43,-3.20
2023,10,28,07,44,-3.20
2023,10,28,07,45,-3.20
2023,10,28,07,46,-3.20
2023,10,28,07,47,-3.20
2023,10,28,07,48,-3.20
2023,10,28,07,49,-3.20
2023,10,28,07,50,-3.20
2023,10,28,07,51,-3.20
2023,10,28,07,52,-3.20
2023,10,28,07,53,-3.20
2023,10,28,07,54,-3.20
2023,10,28,07,55,-3.20
2023,10,28,07,56,-3.20
2023,10,28,07,57,-3.20
2023,10,28,07,58,-3.20
2023,10,28,07,59,-3.20
2023,10,28,08,00,-3.20
2023,10,28,08,01,-3.10
2023,10,28,08,02,-3.10
2023,10,28,08,03,-3.10
2023,10,28,08,04,-3.10
2023,10,28,08,05,-3.10
2023,10,28,08,06,-3.10
2023,10,28,08,07,-3.10
2023,10,28,08,08,-3.10
2023,10,28,08,09,-3.10
2023,10,28,08,10,-3.10
2023,10,28,08,11,-3.10
2023,10,28,08,12,-3.10
2023,10,28,08,13,-3.10
2023,10,28,08,14,-3.10
2023,10,28,08,15,-3.10
2023,10,28,08,16,-3.10
2023,10,28,08,17,-3.10
2023,10,28,08,18,-3.10
2023,10,28,08,19,-3.10
2023,10,28,08,20,-3.10
2023,10,28,08,21,-3.00
2023,10,28,08,22,-3.00
2023,10,28,08,23,-3.00
2023,10,28,08,24,-3.00
2023,10,28,08,25,-3.00
2023,10,28,08,26,-2.90
2023,10,28,08,27,-2.90
2023,10,28,08,28,-2.90
2023,10,28,08,29,-2.90
2023,10,28,08,30,-2.90
2023,10,28,08,31,-2.90
2023,10,28,08,32,-2.90
2023,10,28,08,33,-2.80
2023,10,28,08,34,-2.80
2023,10,28,08,35,-2.80
2023,10,28,08,36,-2.80
2023,10,28,08,37,-2.80
2023,10,28,08,38,-2.80
2023,10,28,08,39,-2.80
2023,10,28,08,40,-2.80
2023,10,28,08,41,-2.80
2023,10,28,08,42,-2.80
2023,10,28,08,43,-2.80
2023,10,28,08,44,-2.80
2023,10,28,08,45,-2.70
2023,10,28,08,46,-2.70
2023,10,28,08,47,-2.70
2023,10,28,08,48,-2.70
2023,10,28,08,49,-2.70
2023,10,28,08,50,-2.70
2023,10,28,08,51,-2.70
2023,10,28,08,52,-2.70
2023,10,28,08,53,-2.70
2023,10,28,08,54,-2.60
2023,10,28,08,55,-2.60
2023,10,28,08,56,-2.60
2023,10,28,08,57,-2.60
2023,10,28,08,58,-2.60
2023,10,28,08,59,-2.60
2023,10,28,09,00,-2.60
2023,10,28,09,01,-2.60
2023,10,28,09,02,-2.50
2023,10,28,09,03,-2.50
2023,10,28,09,04,-2.50
2023,10,28,09,05,-2.50
2023,10,28,09,06,-2.40
2023,10,28,09,07,-2.40
2023,10,28,09,08,-2.40
2023,10,28,09,09,-2.40
2023,10,28,09,10,-2.30
2023,10,28,09,11,-2.30
2023,10,28,09,12,-2.30
2023,10,28,09,13,-2.30
2023,10,28,09,14,-2.30
2023,10,28,09,15,-2.30
2023,10,28,09,16,-2.30
2023,10,28,09,17,-2.30
2023,10,28,09,18,-2.20
2023,10,28,09,19,-2.20
2023,10,28,09,20,-2.20
2023,10,28,09,21,-2.10
2023,10,28,09,22,-2.10
2023,10,28,09,23,-2.00
2023,10,28,09,24,-1.90
2023,10,28,09,25,-1.90
2023,10,28,09,26,-1.80
2023,10,28,09,27,-1.80
2023,10,28,09,28,-1.70
2023,10,28,09,29,-1.70
2023,10,28,09,30,-1.70
2023,10,28,09,31,-1.60
2023,10,28,09,32,-1.60
2023,10,28,09,33,-1.60
2023,10,28,09,34,-1.50
2023,10,28,09,35,-1.50
2023,10,28,09,36,-1.40
2023,10,28,09,37,-1.40
2023,10,28,09,38,-1.40
2023,10,28,09,39,-1.30
2023,10,28,09,40,-1.30
2023,10,28,09,41,-1.30
2023,10,28,09,42,-1.20
2023,10,28,09,43,-1.10
2023,10,28,09,44,-1.10
2023,10,28,09,45,-1.00
2023,10,28,09,46,-1.00
2023,10,28,09,47,-0.90
2023,10,28,09,48,-0.80
2023,10,28,09,49,-0.80
2023,10,28,09,50,-0.80
2023,10,28,09,51,-0.70
2023,10,28,09,52,-0.60
2023,10,28,09,53,-0.60
2023,10,28,09,54,-0.50
2023,10,28,09,55,-0.50
2023,10,28,09,56,-0.40
2023,10,28,09,57,-0.30
2023,10,28,09,58,-0.30
2023,10,28,09,59,-0.20
2023,10,28,10,00,-0.20
2023,10,28,10,01,-0.10
2023,10,28,10,02,0.00
2023,10,28,10,03,0.10
2023,10,28,10,04,0.20
2023,10,28,10,05,0.20
2023,10,28,10,06,0.30
2023,10,28,10,07,0.40
2023,10,28,10,08,0.50
2023,10,28,10,09,0.50
2023,10,28,10,10,0.60
2023,10,28,10,11,0.60
2023,10,28,10,12,0.60
2023,10,28,10,13,0.70
2023,10,28,10,14,0.70
2023,10,28,10,15,0.80
2023,10,28,10,16,0.80
2023,10,28,10,17,0.90
2023,10,28,10,18,0.90
2023,10,28,10,19,1.00
2023,10,28,10,20,1.00
2023,10,28,10,21,1.10
2023,10,28,10,22,1.10
2023,10,28,10,23,1.20
2023,10,28,10,24,1.20
2023,10,28,10,25,1.30
2023,10,28,10,26,1.30
2023,10,28,10,27,1.40
2023,10,28,10,28,1.50
2023,10,28,10,29,1.60
2023,10,28,10,30,1.70
2023,10,28,10,31,1.80
2023,10,28,10,32,1.90
2023,10,28,10,33,2.00
2023,10,28,10,34,2.10
2023,10,28,10,35,2.30
2023,10,28,10,36,2.50
2023,10,28,10,37,2.60
2023,10,28,10,38,2.70
2023,10,28,10,39,2.90
2023,10,28,10,40,3.00
2023,10,28,10,41,3.10
2023,10,28,10,42,3.20
2023,10,28,10,43,3.30
2023,10,28,10,44,3.40
2023,10,28,10,45,3.60
2023,10,28,10,46,3.60
2023,10,28,10,47,3.70
2023,10,28,10,48,3.80
2023,10,28,10,49,3.90
2023,10,28,10,50,4.00
2023,10,28,10,51,4.10
2023,10,28,10,52,4.10
2023,10,28,10,53,4.10
2023,10,28,10,54,4.20
2023,10,28,10,55,4.20
2023,10,28,10,56,4.20
2023,10,28,10,57,4.20
2023,10,28,10,58,4.30
2023,10,28,10,59,4.40
2023,10,28,11,00,4.40
2023,10,28,11,01,4.50
2023,10,28,11,02,4.50
2023,10,28,11,03,4.60
2023,10,28,11,04,4.60
2023,10,28,11,05,4.70
2023,10,28,11,06,4.70
2023,10,28,11,07,4.70
2023,10,28,11,08,4.80
2023,10,28,11,09,4.80
2023,10,28,11,10,4.90
2023,10,28,11,11,4.90
2023,10,28,11,12,4.90
2023,10,28,11,13,4.90
2023,10,28,11,14,5.00
2023,10,28,11,15,5.00
2023,10,28,11,16,5.00
2023,10,28,11,17,5.10
2023,10,28,11,18,5.10
2023,10,28,11,19,5.10
2023,10,28,11,20,5.20
2023,10,28,11,21,5.20
2023,10,28,11,22,5.30
2023,10,28,11,23,5.30
2023,10,28,11,24,5.30
2023,10,28,11,25,5.30
2023,10,28,11,26,5.40
2023,10,28,11,27,5.40
2023,10,28,11,28,5.40
2023,10,28,11,29,5.40
2023,10,28,11,30,5.40
2023,10,28,11,31,5.40
2023,10,28,11,32,5.50
2023,10,28,11,33,5.50
2023,10,28,11,34,5.50
2023,10,28,11,35,5.60
2023,10,28,11,36,5.60
2023,10,28,11,37,5.60
2023,10,28,11,38,5.60
2023,10,28,11,39,5.60
2023,10,28,11,40,5.60
2023,10,28,11,41,5.70
2023,10,28,11,42,5.70
2023,10,28,11,43,5.70
2023,10,28,11,44,5.80
2023,10,28,11,45,5.80
2023,10,28,11,46,5.80
2023,10,28,11,47,5.80
2023,10,28,11,48,5.80
2023,10,28,11,49,5.80
2023,10,28,11,50,5.80
2023,10,28,11,51,5.80
2023,10,28,11,52,5.80
2023,10,28,11,53,5.80
2023,10,28,11,54,5.80
2023,10,28,11,55,5.80
2023,10,28,11,56,5.80
2023,10,28,11,57,5.80
2023,10,28,11,58,5.90
2023,10,28,11,59,5.90
2023,10,28,12,00,5.90
2023,10,28,12,01,5.90
2023,10,28,12,02,5.90
2023,10,28,12,03,6.00
2023,10,28,12,04,6.10
2023,10,28,12,05,6.10
2023,10,28,12,06,6.10
2023,10,28,12,07,6.20
2023,10,28,12,08,6.20
2023,10,28,12,09,6.20
2023,10,28,12,10,6.30
2023,10,28,12,11,6.30
2023,10,28,12,12,6.30
2023,10,28,12,13,6.30
2023,10,28,12,14,6.30
2023,10,28,12,15,6.30
2023,10,28,12,16,6.30
2023,10,28,12,17,6.40
2023,10,28,12,18,6.40
2023,10,28,12,19,6.40
2023,10,28,12,20,6.40
2023,10,28,12,21,6.50
2023,10,28,12,22,6.50
2023,10,28,12,23,6.50
2023,10,28,12,24,6.60
2023,10,28,12,25,6.60
2023,10,28,12,26,6.60
2023,10,28,12,27,6.50
2023,10,28,12,28,6.50
2023,10,28,12,29,6.50
2023,10,28,12,30,6.60
2023,10,28,12,31,6.60
2023,10,28,12,32,6.60
2023,10,28,12,33,6.60
2023,10,28,12,34,6.70
2023,10,28,12,35,6.70
2023,10,28,12,36,6.70
2023,10,28,12,37,6.70
2023,10,28,12,38,6.70
2023,10,28,12,39,6.70
2023,10,28,12,40,6.70
2023,10,28,12,41,6.70
2023,10,28,12,42,6.70
2023,10,28,12,43,6.70
2023,10,28,12,44,6.70
2023,10,28,12,45,6.70
2023,10,28,12,46,6.70
2023,10,28,12,47,6.70
2023,10,28,12,48,6.70
2023,10,28,12,49,6.70
2023,10,28,12,50,6.70
2023,10,28,12,51,6.60
2023,10,28,12,52,6.60
2023,10,28,12,53,6.60
2023,10,28,12,54,6.60
2023,10,28,12,55,6.70
2023,10,28,12,56,6.70
2023,10,28,12,57,6.70
2023,10,28,12,58,6.70
2023,10,28,12,59,6.70
2023,10,28,13,00,6.70
2023,10,28,13,01,6.80
2023,10,28,13,02,6.80
2023,10,28,13,03,6.80
2023,10,28,13,04,6.80
2023,10,28,13,05,6.90
2023,10,28,13,06,6.90
2023,10,28,13,07,6.90
2023,10,28,13,08,7.00
2023,10,28,13,09,7.00
2023,10,28,13,10,7.00
2023,10,28,13,11,7.10
2023,10,28,13,12,7.10
2023,10,28,13,13,7.10
2023,10,28,13,14,7.10
2023,10,28,13,15,7.00
2023,10,28,13,16,7.10
2023,10,28,13,17,7.10
2023,10,28,13,18,7.10
2023,10,28,13,19,7.10
2023,10,28,13,20,7.10
2023,10,28,13,21,7.10
2023,10,28,13,22,7.10
2023,10,28,13,23,7.10
2023,10,28,13,24,7.20
2023,10,28,13,25,7.10
2023,10,28,13,26,7.10
2023,10,28,13,27,7.10
2023,10,28,13,28,7.20
2023,10,28,13,29,7.20
2023,10,28,13,30,7.10
2023,10,28,13,31,7.10
2023,10,28,13,32,7.00
2023,10,28,13,33,7.00
2023,10,28,13,34,7.00
2023,10,28,13,35,7.00
2023,10,28,13,36,7.00
2023,10,28,13,37,7.00
2023,10,28,13,38,7.00
2023,10,28,13,39,7.00
2023,10,28,13,40,7.00
2023,10,28,13,41,6.90
2023,10,28,13,42,6.90
2023,10,28,13,43,6.90
2023,10,28,13,44,6.90
2023,10,28,13,45,6.90
2023,10,28,13,46,6.90
2023,10,28,13,47,6.90
2023,10,28,13,48,6.90
2023,10,28,13,49,6.90
2023,10,28,13,50,6.90
2023,10,28,13,51,6.90
2023,10,28,13,52,6.90
2023,10,28,13,53,6.90
2023,10,28,13,54,6.90
2023,10,28,13,55,6.90
2023,10,28,13,56,6.90
2023,10,28,13,57,6.90
2023,10,28,13,58,6.90
2023,10,28,13,59,6.90
2023,10,28,14,00,6.90
2023,10,28,14,01,6.90
2023,10,28,14,02,6.90
2023,10,28,14,03,6.90
2023,10,28,14,04,6.80
2023,10,28,14,05,6.80
2023,10,28,14,06,6.80
2023,10,28,14,07,6.80
2023,10,28,14,08,6.90
2023,10,28,14,09,6.90
2023,10,28,14,10,6.90
2023,10,28,14,11,6.90
2023,10,28,14,12,6.90
2023,10,28,14,13,6.90
2023,10,28,14,14,6.90
2023,10,28,14,15,6.90
2023,10,28,14,16,6.90
2023,10,28,14,17,6.90
2023,10,28,14,18,6.90
2023,10,28,14,19,6.90
2023,10,28,14,20,6.90
2023,10,28,14,21,6.90
2023,10,28,14,22,7.00
2023,10,28,14,23,7.00
2023,10,28,14,24,7.00
2023,10,28,14,25,7.00
2023,10,28,14,26,7.10
2023,10,28,14,27,7.10
2023,10,28,14,28,7.10
2023,10,28,14,29,7.10
2023,10,28,14,30,7.10
2023,10,28,14,31,7.20
2023,10,28,14,32,7.20
2023,10,28,14,33,7.20
2023,10,28,14,34,7.20
2023,10,28,14,35,7.20
2023,10,28,14,36,7.20
2023,10,28,14,37,7.20
2023,10,28,14,38,7.10
2023,10,28,14,39,7.20
2023,10,28,14,40,7.20
2023,10,28,14,41,7.20
2023,10,28,14,42,7.20
2023,10,28,14,43,7.20
2023,10,28,14,44,7.20
2023,10,28,14,45,7.20
2023,10,28,14,46,7.20
2023,10,28,14,47,7.20
2023,10,28,14,48,7.20
2023,10,28,14,49,7.20
2023,10,28,14,50,7.20
2023,10,28,14,51,7.20
2023,10,28,14,52,7.20
2023,10,28,14,53,7.20
2023,10,28,14,54,7.20
2023,10,28,14,55,7.10
2023,10,28,14,56,7.10
2023,10,28,14,57,7.10
2023,10,28,14,58,7.10
2023,10,28,14,59,7.10
2023,10,28,15,00,7.10
2023,10,28,15,01,7.10
2023,10,28,15,02,7.10
2023,10,28,15,03,7.20
2023,10,28,15,04,7.20
2023,10,28,15,05,7.20
2023,10,28,15,06,7.20
2023,10,28,15,07,7.20
2023,10,28,15,08,7.20
2023,10,28,15,09,7.20
2023,10,28,15,10,7.20
2023,10,28,15,11,7.20
2023,10,28,15,12,7.30
2023,10,28,15,13,7.30
2023,10,28,15,14,7.30
2023,10,28,15,15,7.30
2023,10,28,15,16,7.40
2023,10,28,15,17,7.40
2023,10,28,15,18,7.40
2023,10,28,15,19,7.40
2023,10,28,15,20,7.50
2023,10,28,15,21,7.50
2023,10,28,15,22,7.50
2023,10,28,15,23,7.50
2023,10,28,15,24,7.50
2023,10,28,15,25,7.50
2023,10,28,15,26,7.50
2023,10,28,15,27,7.50
2023,10,28,15,28,7.60
2023,10,28,15,29,7.60
2023,10,28,15,30,7.60
2023,10,28,15,31,7.60
2023,10,28,15,32,7.60
2023,10,28,15,33,7.60
2023,10,28,15,34,7.60
2023,10,28,15,35,7.60
2023,10,28,15,36,7.60
2023,10,28,15,37,7.60
2023,10,28,15,38,7.60
2023,10,28,15,39,7.50
2023,10,28,15,40,7.50
2023,10,28,15,41,7.50
2023,10,28,15,42,7.50
2023,10,28,15,43,7.50
2023,10,28,15,44,7.50
2023,10,28,15,45,7.50
2023,10,28,15,46,7.50
2023,10,28,15,47,7.50
2023,10,28,15,48,7.50
2023,10,28,15,49,7.50
2023,10,28,15,50,7.50
2023,10,28,15,51,7.50
2023,10,28,15,52,7.50
2023,10,28,15,53,7.40
2023,10,28,15,54,7.40
2023,10,28,15,55,7.40
2023,10,28,15,56,7.40
2023,10,28,15,57,7.40
2023,10,28,15,58,7.40
2023,10,28,15,59,7.40
2023,10,28,16,00,7.40
2023,10,28,16,01,7.30
2023,10,28,16,02,7.30
2023,10,28,16,03,7.30
2023,10,28,16,04,7.30
2023,10,28,16,05,7.30
2023,10,28,16,06,7.30
2023,10,28,16,07,7.30
2023,10,28,16,08,7.30
2023,10,28,16,09,7.20
2023,10,28,16,10,7.20
2023,10,28,16,11,7.20
2023,10,28,16,12,7.20
2023,10,28,16,13,7.10
2023,10,28,16,14,7.10
2023,10,28,16,15,7.20
2023,10,28,16,16,7.20
2023,10,28,16,17,7.20
2023,10,28,16,18,7.20
2023,10,28,16,19,7.20
2023,10,28,16,20,7.10
2023,10,28,16,21,7.10
2023,10,28,16,22,7.10
2023,10,28,16,23,7.10
2023,10,28,16,24,7.10
2023,10,28,16,25,7.00
2023,10,28,16,26,7.00
2023,10,28,16,27,6.90
2023,10,28,16,28,6.90
2023,10,28,16,29,7.00
2023,10,28,16,30,7.00
2023,10,28,16,31,7.00
2023,10,28,16,32,7.10
2023,10,28,16,33,7.00
2023,10,28,16,34,7.00
2023,10,28,16,35,7.00
2023,10,28,16,36,6.90
2023,10,28,16,37,6.90
2023,10,28,16,38,6.90
2023,10,28,16,39,6.90
2023,10,28,16,40,6.90
2023,10,28,16,41,6.90
2023,10,28,16,42,6.80
2023,10,28,16,43,6.80
2023,10,28,16,44,6.80
2023,10,28,16,45,6.70
2023,10,28,16,46,6.70
2023,10,28,16,47,6.60
2023,10,28,16,48,6.60
2023,10,28,16,49,6.50
2023,10,28,16,50,6.40
2023,10,28,16,51,6.40
2023,10,28,16,52,6.30
2023,10,28,16,53,6.30
2023,10,28,16,54,6.30
2023,10,28,16,55,6.30
2023,10,28,16,56,6.30
2023,10,28,16,57,6.30
2023,10,28,16,58,6.30
2023,10,28,16,59,6.30
2023,10,28,17,00,6.40
2023,10,28,17,01,6.40
2023,10,28,17,02,6.40
2023,10,28,17,03,6.40
2023,10,28,17,04,6.40
2023,10,28,17,05,6.30
2023,10,28,17,06,6.30
2023,10,28,17,07,6.30
2023,10,28,17,08,6.20
2023,10,28,17,09,6.20
2023,10,28,17,10,6.10
2023,10,28,17,11,6.10
2023,10,28,17,12,6.00
2023,10,28,17,13,6.00
2023,10,28,17,14,5.90
2023,10,28,17,15,5.90
2023,10,28,17,16,5.80
2023,10,28,17,17,5.80
2023,10,28,17,18,5.70
2023,10,28,17,19,5.70
2023,10,28,17,20,5.60
2023,10,28,17,21,5.50
2023,10,28,17,22,5.50
2023,10,28,17,23,5.40
2023,10,28,17,24,5.30
2023,10,28,17,25,5.30
2023,10,28,17,26,5.20
2023,10,28,17,27,5.20
2023,10,28,17,28,5.10
2023,10,28,17,29,5.00
2023,10,28,17,30,5.00
2023,10,28,17,31,4.90
2023,10,28,17,32,4.80
2023,10,28,17,33,4.80
2023,10,28,17,34,4.70
2023,10,28,17,35,4.70
2023,10,28,17,36,4.60
2023,10,28,17,37,4.50
2023,10,28,17,38,4.50
2023,10,28,17,39,4.40